Lid_Strength_Index
-1 -0 0 3 11 12 14 12 9 9 8 6 5 7 8 7 9 12 2 1 0 0 -0 -1 -1 -1 -1 -1 -1 -1 -1 -1 -2 -1 -2 -2 -2 -2 -2 -2 -1 -2 -2 -2 -2 -2 -2 -2 -2
-0 0 2 6 13 16 14 10 11 8 7 5 5 6 7 9 5 4 3 0 -0 -0 -0 -0 -1 -2 -2 -2 -2 -2 -2 -1 -1 -1 -2 -1 -2 -2 -2 -1 -2 -2 -2 -2 -2 -2 -2 -2 -2
0 1 7 10 13 15 14 10 9 7 5 6 7 5 6 8 4 3 1 0 -0 0 -0 -0 -2 -1 -1 -1 -1 -2 -2 -2 -1 -1 -2 -1 -2 -2 -2 -2 -2 -2 -2 -2 -2 -2 -2 -2 -2
2 4 6 12 14 11 11 9 7 7 6 5 6 8 5 2 3 2 0 0 0 0 -0 -1 -2 -1 -1 -1 -1 -2 -1 -1 -2 -1 -2 -1 -2 -2 -1 -1 -2 -2 -2 -2 -2 -2 -2 -1 -2
2 6 12 13 13 10 8 7 6 8 7 6 6 8 7 3 1 1 1 0 1 0 -0 -0 -2 -2 -1 -1 -1 -2 -2 -2 -2 -2 -2 -2 -2 -2 -2 -2 -2 -2 -2 -2 -2 -2 -2 -2 -2
7 7 14 15 12 9 8 6 6 7 7 6 7 7 7 2 2 1 0 1 -0 0 -0 -0 -1 -1 -2 -1 -2 -2 -2 -1 -2 -2 -2 -2 -2 -2 -2 -1 -2 -2 -2 -1 -1 -1 -2 -2 -2
8 10 13 11 12 11 9 5 7 7 7 7 5 8 6 3 2 1 1 0 -0 -0 0 -0 -0 -1 -2 -2 -2 -2 -2 -1 -1 -1 -2 -2 -2 -2 -2 -2 -2 -2 -1 -1 -1 -1 -1 -2 -2
7 9 12 12 12 12 7 6 5 6 7 4 4 8 8 4 1 1 1 1 0 0 -0 -0 0 0 -0 -0 -2 -2 -1 -2 -1 -2 -2 -2 -2 -2 -2 -2 -2 -2 -1 -1 -1 -1 -1 -1 -2
4 11 14 12 11 11 7 8 6 5 6 5 4 5 3 2 1 2 2 2 1 1 0 0 0 0 0 0 -1 -1 -2 -2 -2 -2 -2 -1 0 -0 -0 -1 -2 -2 -1 -1 -1 -1 -1 -1 -1
8 12 11 9 8 9 8 7 7 7 7 6 5 4 3 2 2 3 3 3 2 2 1 0 -0 0 0 -0 0 0 -1 -0 -0 -0 0 0 1 0 -0 -1 -2 -2 -1 -1 -1 -1 -1 -1 -1
8 11 8 7 7 7 8 8 6 7 9 6 7 5 4 3 3 3 3 3 2 1 1 0 0 0 0 0 0 0 -0 -0 -0 -0 0 0 0 0 0 0 0 0 -1 -0 -1 -0 -0 -0 -0
10 7 7 7 6 7 8 7 8 7 7 4 4 4 4 4 4 3 3 3 2 2 1 1 1 1 1 0 0 0 0 -0 0 -0 0 1 1 1 0 0 0 0 0 1 0 1 0 0 0
9 8 7 6 6 6 6 8 8 7 5 3 3 4 4 4 3 3 2 2 2 2 1 1 1 3 3 2 1 1 1 0 0 1 -0 -0 0 1 0 0 0 0 0 0 1 0 1 0 1
6 7 7 7 7 7 8 8 7 7 5 4 4 4 4 4 3 3 3 3 2 2 1 2 1 1 2 3 1 2 1 0 0 -0 -0 -0 0 0 0 1 0 1 0 0 1 1 1 0 1
7 10 8 8 8 8 7 10 9 6 5 5 5 4 4 3 3 3 3 3 2 2 1 2 2 0 2 2 1 1 0 0 0 0 -0 0 1 0 1 0 0 1 0 1 1 1 0 1 0
9 10 14 9 8 8 8 14 8 6 6 6 5 5 4 4 3 3 2 2 2 1 1 1 0 0 3 1 0 1 1 1 1 0 0 -0 0 0 0 0 1 1 0 1 0 1 2 1 1
13 15 14 12 8 8 9 13 8 6 7 7 6 5 5 4 4 3 2 2 1 1 1 1 1 1 1 0 0 1 1 1 1 0 0 0 0 -0 0 0 0 0 0 1 1 1 2 1 2
15 13 14 13 10 9 11 11 9 7 7 7 6 6 5 5 4 3 2 2 1 1 2 1 1 1 1 1 0 0 0 1 0 0 0 0 -0 -0 0 -0 0 0 1 1 1 1 1 2 2
13 11 12 11 9 10 11 12 10 8 7 7 7 7 5 5 3 3 2 2 2 2 1 2 1 1 1 1 1 1 2 1 1 1 -0 0 -0 0 0 1 0 1 1 1 2 1 2 2 1
13 12 13 11 9 11 11 12 10 8 8 7 7 7 5 5 4 3 3 2 2 2 1 1 1 2 2 1 1 0 1 1 1 1 0 -0 -0 -0 0 1 0 0 1 1 1 1 2 2 2
13 14 13 13 11 10 11 13 12 9 7 7 6 6 5 5 5 4 3 3 2 2 2 1 1 2 1 1 1 1 1 1 1 1 1 0 0 -0 -0 0 0 1 1 1 1 1 2 3 2
15 11 10 12 13 16 11 18 14 11 10 8 8 7 6 5 4 4 3 3 3 2 1 1 1 1 1 1 2 2 2 3 2 1 1 0 0 0 0 0 0 1 1 1 1 0 1 2 3
12 9 10 11 13 14 14 17 15 11 12 10 8 7 6 5 4 4 4 3 2 2 2 1 1 1 1 1 2 2 2 2 2 2 1 1 0 0 0 0 0 1 1 1 1 1 1 1 2
7 10 11 12 14 19 14 16 16 14 12 10 8 7 6 5 4 4 3 2 2 2 2 1 1 1 1 1 1 1 3 3 3 2 2 1 1 1 0 0 0 0 0 1 1 1 1 1 1
9 12 18 20 19 19 14 16 15 11 9 8 8 7 6 5 5 4 4 3 3 2 2 2 2 2 1 1 1 2 3 3 2 2 2 2 1 1 1 0 1 0 1 0 1 1 1 1 1
11 11 16 21 20 18 13 17 14 9 8 7 7 6 6 5 5 4 4 3 3 3 2 2 2 2 1 1 1 2 1 1 1 1 2 1 1 2 1 0 0 0 0 0 0 1 1 1 1
12 12 11 14 13 17 17 14 11 9 9 8 8 7 7 6 5 4 4 3 3 3 2 2 2 2 2 1 1 1 1 2 3 2 1 1 2 1 0 0 0 0 0 0 0 1 1 1 1
9 9 13 14 18 19 18 17 16 13 11 9 9 8 7 6 5 4 4 3 3 2 2 2 2 3 4 3 3 1 1 1 1 2 1 2 1 0 1 1 0 0 0 1 1 2 0 1 1
11 13 13 14 15 17 21 18 11 11 10 9 8 7 7 6 5 5 4 3 3 2 2 3 4 5 5 3 3 3 2 1 1 1 1 1 1 1 2 1 1 1 1 0 1 1 1 1 1
11 12 13 15 16 16 17 17 9 9 8 8 8 7 6 5 5 4 4 3 3 3 2 2 3 3 2 2 2 1 1 1 1 1 1 1 1 1 2 1 3 3 2 1 1 1 1 2 1